[[{"header":{"parameterUnit":"m.s-1","parameterCategory":2,"la1":30.2992,"la2":30.254,"lo1":-89.0895,"lo2":-89.0443,"dy":0.0025,"dx":0.0025,"nx":19,"ny":19,"refTime":"2026-03-13T03:00:00:Z","depth":"0","parameterNumber":2,"parameterNumberName":"U-component_of_CURRENTS"},"data":[0,0,0,0.1983,0.1985,0.2038,0.2038,0.2086,0.2086,0,0,0,0,0,0,0,0,0,0,0,0.1959,0.1959,0.1983,0.1985,0.2038,0.2038,0.2086,0.2086,0,0,0,0,0,0,0,0,0,0,0,0.1958,0.1959,0.1959,0.1985,0.2038,0.2038,0.2086,0.2048,0,0,0,0,0,0,0,0,0,0,0.1998,0.1975,0.1959,0.196,0.1985,0.2038,0.2038,0.2047,0.2051,0.2059,0,0.2072,0,0.2088,0.209,0.209,0,0,0,0.1975,0.1971,0.1996,0.196,0.1986,0.2038,0.2011,0.2049,0.2053,0.2065,0.2073,0.2075,0.2089,0.2091,0.2091,0.2164,0.2164,0,0,0.1972,0.1957,0.1993,0.1999,0.2006,0.201,0.2013,0.2052,0.2053,0.2073,0.2077,0.209,0.2091,0.2091,0.2163,0.2164,0,0,0,0.197,0.1955,0.1979,0.1997,0.2013,0.2011,0.2015,0.205,0.2062,0.2077,0.209,0.2091,0.2092,0.2163,0.2164,0.2192,0,0,0,0.1968,0.1955,0.1978,0.1968,0.2012,0.2034,0.2013,0.2059,0.2064,0.209,0.2091,0.2092,0.2163,0.2163,0.219,0.2202,0,0,0,0.1955,0.1954,0.1964,0.1967,0.1997,0.2034,0.2046,0.206,0.2072,0.209,0.2093,0.2162,0.2163,0.2189,0.22,0.227,0,0,0,0.1932,0.194,0.1963,0.198,0.1997,0.2042,0.2046,0.2074,0.209,0.2092,0.2163,0.2163,0.2188,0.2198,0.2268,0.2288,0.2301,0,0,0.1928,0.1939,0.1951,0.1973,0.2015,0.2034,0.2081,0.2101,0.2108,0.2146,0.2147,0.2191,0.22,0.227,0.2342,0.2353,0,0,0,0.194,0.195,0.1967,0.1998,0.2037,0.2082,0.2108,0.2131,0.2169,0.2125,0.2202,0.2207,0.225,0.2257,0.2267,0.2285,0.2168,0.2168,0.2168,0.1908,0.1941,0.1963,0.2012,0.2048,0.2117,0.2159,0.2196,0.2195,0.2221,0.2238,0.232,0.2327,0.2335,0.2352,0.2247,0.2247,0.2248,0.2248,0.1896,0.1904,0.1959,0.1988,0.2055,0.21,0.2204,0.223,0.2316,0.2281,0.2323,0.2296,0.2346,0.2362,0.225,0.2249,0.2249,0.2249,0.2249,0.1857,0.1866,0.1891,0.1942,0.2006,0.2092,0.2193,0.2278,0.2338,0.2384,0.2421,0.242,0.243,0.2416,0.2416,0.2416,0.2417,0.2417,0.2417,0.1797,0.1827,0.1836,0.19,0.1931,0.2032,0.2194,0.2282,0.2417,0.2462,0.2462,0.2464,0.2372,0.236,0.2423,0.2422,0.2421,0.2421,0.242,0.1738,0.1755,0.1768,0.179,0.1875,0.194,0.2118,0.2324,0.2449,0.2517,0.2585,0.2518,0.252,0.2512,0.2504,0.2601,0.2601,0.2601,0.2601,0.1686,0.1701,0.1702,0.172,0.1786,0.1891,0.2004,0.2216,0.2494,0.2612,0.267,0.2624,0.2616,0.262,0.2609,0.2603,0.2722,0.2722,0.2722,0.164,0.1658,0.1632,0.1663,0.1724,0.1819,0.1883,0.206,0.2493,0.2728,0.2696,0.269,0.262,0.2606,0.2604,0.2588,0.2573,0,0]},{"header":{"parameterUnit":"m.s-1","parameterCategory":2,"la1":30.2992,"la2":30.254,"lo1":-89.0895,"lo2":-89.0443,"dy":0.0025,"dx":0.0025,"nx":19,"ny":19,"refTime":"2026-03-13T03:00:00:Z","depth":"0","parameterNumber":3,"parameterNumberName":"V-component_of_CURRENTS"},"data":[0,0,0,0.0135,0.0134,0.0084,0.0083,-0.0001,-0.0002,0,0,0,0,0,0,0,0,0,0,0,0.0153,0.0153,0.0135,0.0134,0.0084,0.0083,-0.0001,-0.0002,0,0,0,0,0,0,0,0,0,0,0,0.0153,0.0153,0.0153,0.0134,0.0084,0.0083,-0.0001,0.0039,0,0,0,0,0,0,0,0,0,0,0.009,0.0117,0.0153,0.0153,0.0134,0.0084,0.0083,0.0041,0.0037,0.0019,0,0.002,0,0.0011,-0.0007,-0.0007,0,0,0,0.0123,0.0121,0.0106,0.0153,0.0133,0.0084,0.0103,0.0039,0.0034,0.0013,0.0019,0.0016,0.001,-0.0008,-0.0008,-0.0023,-0.0022,0,0,0.0125,0.0142,0.011,0.0103,0.0131,0.0105,0.0102,0.0036,0.0036,0.0019,0.0014,0.0008,-0.0008,-0.0009,-0.0023,-0.0023,0,0,0,0.0141,0.0144,0.013,0.0107,0.0101,0.0104,0.01,0.0038,0.0034,0.0013,0.0007,-0.0009,-0.0009,-0.0024,-0.0023,0.0067,0,0,0,0.0142,0.0154,0.0132,0.0141,0.0103,0.0073,0.0104,0.0038,0.0031,0.0008,-0.0009,-0.001,-0.0024,-0.0023,0.0064,0.0124,0,0,0,0.0154,0.0155,0.0152,0.0142,0.0125,0.0074,0.0065,0.0036,0.0027,-0.0007,-0.001,-0.0024,-0.0023,0.0061,0.0118,0.0163,0,0,0,0.0167,0.0191,0.0153,0.0178,0.0126,0.0128,0.0065,0.0054,0.0032,-0.0009,-0.0024,-0.0023,0.006,0.0114,0.0159,0.0248,0.0273,0,0,0.0209,0.0196,0.0212,0.0177,0.0204,0.0133,0.0155,0.0094,0.0038,-0.0007,-0.0008,0.0065,0.0117,0.0162,0.0304,0.0327,0,0,0,0.0234,0.0248,0.0249,0.0252,0.0232,0.0224,0.016,0.0129,0.0088,0.0031,0.0059,0.009,0.0115,0.016,0.0179,0.0068,-0.0018,-0.0019,-0.0019,0.0308,0.0299,0.0336,0.0326,0.0324,0.0282,0.0271,0.0215,0.0146,0.0143,0.0159,0.0251,0.03,0.0315,0.0199,0.0141,0.0142,0.0142,0.0142,0.0386,0.0411,0.0403,0.0433,0.0415,0.0419,0.037,0.0325,0.0308,0.0235,0.0254,0.0248,0.0341,0.021,0.0148,0.0147,0.0146,0.0145,0.0145,0.0432,0.0448,0.0458,0.0504,0.0535,0.0507,0.0561,0.0495,0.0405,0.0426,0.045,0.0449,0.0338,0.0427,0.0428,0.0428,0.0428,0.0429,0.0429,0.0476,0.0493,0.0542,0.0584,0.0623,0.0681,0.0672,0.0676,0.0638,0.0574,0.0573,0.0367,0.0337,0.0331,0.0436,0.0435,0.0434,0.0434,0.0433,0.0541,0.0541,0.0627,0.0673,0.0788,0.0921,0.0895,0.0931,0.0891,0.0897,0.06,0.064,0.0621,0.0605,0.0605,0.0775,0.0775,0.0775,0.0775,0.0582,0.059,0.0711,0.0811,0.0944,0.1035,0.1203,0.1195,0.0963,0.0813,0.0675,0.0608,0.0599,0.0572,0.0557,0.0551,0.0704,0.0704,0.0703,0.0634,0.0666,0.0765,0.0862,0.1015,0.1184,0.1365,0.1419,0.1021,0.0682,0.0504,0.0507,0.0383,0.0377,0.0308,0.0297,0.0278,0,0]}],[{"header":{"parameterUnit":"m.s-1","parameterCategory":2,"la1":30.2992,"la2":30.254,"lo1":-89.0895,"lo2":-89.0443,"dy":0.0025,"dx":0.0025,"nx":19,"ny":19,"refTime":"2026-03-13T03:00:00:Z","depth":"2","parameterNumber":2,"parameterNumberName":"U-component_of_CURRENTS"},"data":[0,0,0,0.1841,0.1842,0.191,0.191,0.197,0.197,0,0,0,0,0,0,0,0,0,0,0,0.1813,0.1814,0.184,0.1842,0.191,0.191,0.197,0.197,0,0,0,0,0,0,0,0,0,0,0,0.1813,0.1813,0.1814,0.1843,0.191,0.191,0.197,0.1924,0,0,0,0,0,0,0,0,0,0,0.1861,0.1837,0.1813,0.1814,0.1843,0.1909,0.191,0.1922,0.1927,0.1934,0,0.1949,0,0.1966,0.1974,0.1975,0,0,0,0.1836,0.1833,0.1858,0.1814,0.1844,0.1909,0.1877,0.1925,0.193,0.194,0.195,0.1952,0.1967,0.1975,0.1975,0.2051,0.2052,0,0,0.1832,0.1818,0.1854,0.1862,0.1867,0.1875,0.188,0.1928,0.1931,0.195,0.1954,0.1968,0.1975,0.1976,0.2051,0.2052,0,0,0,0.1826,0.1815,0.1839,0.1859,0.1876,0.1877,0.1882,0.1929,0.1939,0.1955,0.1969,0.1976,0.1976,0.2051,0.2051,0.2078,0,0,0,0.1823,0.1812,0.1838,0.1828,0.1875,0.1906,0.1882,0.1936,0.1942,0.1968,0.1976,0.1977,0.205,0.2051,0.2076,0.2089,0,0,0,0.1809,0.181,0.1821,0.1828,0.1861,0.1906,0.1919,0.1937,0.1951,0.1975,0.1977,0.205,0.2051,0.2075,0.2087,0.2146,0,0,0,0.1787,0.1798,0.1821,0.1841,0.1861,0.1912,0.1919,0.1954,0.1975,0.1976,0.205,0.2051,0.2074,0.2085,0.2144,0.2131,0.214,0,0,0.1786,0.1797,0.181,0.1833,0.1878,0.1901,0.1953,0.1982,0.1992,0.203,0.2032,0.2077,0.2086,0.2146,0.2184,0.2191,0,0,0,0.18,0.1812,0.183,0.1863,0.1904,0.1952,0.1986,0.201,0.2054,0.2011,0.2088,0.2094,0.213,0.2118,0.2124,0.2056,0.2055,0.2055,0.2055,0.1774,0.1807,0.1832,0.1881,0.1921,0.199,0.2034,0.2075,0.2078,0.2105,0.2124,0.2197,0.2184,0.2188,0.2133,0.2133,0.2133,0.2133,0.2133,0.1767,0.1776,0.1833,0.1867,0.1932,0.1982,0.2082,0.2109,0.2193,0.2165,0.22,0.2156,0.2197,0.2135,0.2135,0.2135,0.2134,0.2134,0.2134,0.1731,0.174,0.177,0.1826,0.1892,0.1979,0.2074,0.2157,0.2215,0.2257,0.2267,0.2265,0.2222,0.2284,0.2285,0.2285,0.2285,0.2285,0.2286,0.1672,0.1705,0.172,0.1788,0.1824,0.1923,0.2077,0.2158,0.2269,0.2303,0.2303,0.2249,0.2244,0.2232,0.2291,0.229,0.2289,0.2289,0.2288,0.1617,0.1636,0.1655,0.1683,0.1772,0.1826,0.1995,0.2166,0.228,0.2328,0.234,0.2337,0.2334,0.2328,0.2319,0.2397,0.2397,0.2397,0.2397,0.1568,0.1584,0.1594,0.1617,0.1681,0.1776,0.1853,0.1995,0.2187,0.2247,0.2253,0.2189,0.2189,0.2174,0.2171,0.2157,0.2192,0.2191,0.2191,0.1527,0.1545,0.1527,0.1563,0.162,0.1701,0.1714,0.1758,0.1966,0.2176,0.2149,0.2396,0.2316,0.231,0.2296,0.2288,0.2269,0,0]},{"header":{"parameterUnit":"m.s-1","parameterCategory":2,"la1":30.2992,"la2":30.254,"lo1":-89.0895,"lo2":-89.0443,"dy":0.0025,"dx":0.0025,"nx":19,"ny":19,"refTime":"2026-03-13T03:00:00:Z","depth":"2","parameterNumber":3,"parameterNumberName":"V-component_of_CURRENTS"},"data":[0,0,0,-0.0011,-0.0011,-0.0054,-0.0054,-0.0132,-0.0133,0,0,0,0,0,0,0,0,0,0,0,0.0005,0.0005,-0.0011,-0.0011,-0.0054,-0.0054,-0.0132,-0.0133,0,0,0,0,0,0,0,0,0,0,0,0.0005,0.0005,0.0005,-0.0011,-0.0054,-0.0054,-0.0132,-0.0096,0,0,0,0,0,0,0,0,0,0,-0.0053,-0.0028,0.0005,0.0005,-0.0011,-0.0054,-0.0054,-0.0094,-0.0098,-0.0116,0,-0.0115,0,-0.0122,-0.0137,-0.0138,0,0,0,-0.0021,-0.0025,-0.0037,0.0005,-0.0012,-0.0054,-0.0037,-0.0096,-0.0101,-0.0122,-0.0116,-0.0119,-0.0124,-0.0138,-0.0138,-0.0153,-0.0152,0,0,-0.0019,-0.0005,-0.0034,-0.004,-0.0013,-0.0036,-0.0039,-0.0099,-0.01,-0.0116,-0.0121,-0.0125,-0.0138,-0.0139,-0.0153,-0.0152,0,0,0,-0.0005,-0.0003,-0.0014,-0.0037,-0.0041,-0.0037,-0.004,-0.0097,-0.0101,-0.0121,-0.0126,-0.0139,-0.014,-0.0153,-0.0153,-0.007,0,0,0,-0.0004,0.0005,-0.0013,-0.0005,-0.0039,-0.0065,-0.0036,-0.0096,-0.0103,-0.0126,-0.0139,-0.014,-0.0154,-0.0153,-0.0073,-0.0017,0,0,0,0.0006,0.0006,0.0004,-0.0004,-0.0019,-0.0065,-0.0072,-0.0098,-0.0106,-0.0138,-0.0141,-0.0154,-0.0153,-0.0076,-0.0023,0.0009,0,0,0,0.0016,0.0037,0.0005,0.0027,-0.0018,-0.0015,-0.0072,-0.0081,-0.0101,-0.0139,-0.0154,-0.0153,-0.0077,-0.0026,0.0005,0.0059,0.0078,0,0,0.0053,0.0042,0.0056,0.0027,0.0052,-0.0011,0.001,-0.0045,-0.0096,-0.0139,-0.0139,-0.0072,-0.0023,0.0008,0.0111,0.013,0,0,0,0.0075,0.0088,0.0089,0.0094,0.0077,0.0072,0.0015,-0.0013,-0.005,-0.0102,-0.0077,-0.0048,-0.0032,-0.0007,0.0008,-0.0148,-0.0149,-0.0149,-0.0149,0.0137,0.0132,0.0166,0.0162,0.0161,0.0125,0.0115,0.0065,0.0003,0.0001,0.0015,0.0093,0.0121,0.0132,-0.0001,-0.0001,-0.0001,-0.0,-0.0,0.0206,0.023,0.0228,0.0258,0.0245,0.0252,0.0207,0.0166,0.0148,0.0086,0.0097,0.0075,0.0153,0.0006,0.0005,0.0004,0.0003,0.0003,0.0003,0.0247,0.0263,0.0276,0.0323,0.0354,0.0332,0.0379,0.032,0.0236,0.0253,0.025,0.0249,0.0148,0.0249,0.0249,0.025,0.025,0.025,0.025,0.0283,0.0303,0.035,0.0394,0.0433,0.0487,0.0479,0.0477,0.0426,0.0361,0.036,0.0177,0.0169,0.0162,0.0257,0.0255,0.0255,0.0254,0.0254,0.0339,0.0343,0.0424,0.047,0.0578,0.0686,0.0667,0.0673,0.0631,0.0618,0.0408,0.0402,0.038,0.0367,0.0365,0.0507,0.0507,0.0507,0.0507,0.0374,0.0382,0.0496,0.059,0.0709,0.0781,0.09,0.0857,0.0712,0.0596,0.0592,0.0548,0.0536,0.0518,0.0502,0.0499,0.0676,0.0677,0.0677,0.0415,0.0447,0.0537,0.063,0.0767,0.0899,0.1016,0.0989,0.0768,0.0681,0.0593,0.0524,0.0444,0.0431,0.0386,0.0367,0.0356,0,0]}],[{"header":{"parameterUnit":"m.s-1","parameterCategory":2,"la1":30.2992,"la2":30.254,"lo1":-89.0895,"lo2":-89.0443,"dy":0.0025,"dx":0.0025,"nx":19,"ny":19,"refTime":"2026-03-13T03:00:00:Z","depth":"4","parameterNumber":2,"parameterNumberName":"U-component_of_CURRENTS"},"data":[0,0,0,0.1268,0.1271,0.1421,0.1421,0.1535,0.1536,0,0,0,0,0,0,0,0,0,0,0,0.1222,0.1223,0.1268,0.1272,0.142,0.1421,0.1535,0.1536,0,0,0,0,0,0,0,0,0,0,0,0.1221,0.1223,0.1224,0.1272,0.142,0.1421,0.1535,0.1441,0,0,0,0,0,0,0,0,0,0,0.1306,0.1276,0.1222,0.1224,0.1273,0.142,0.1421,0.1438,0.1447,0.1446,0,0.148,0,0.1508,0.1542,0.1542,0,0,0,0.1272,0.1268,0.1307,0.1225,0.1275,0.142,0.1353,0.1444,0.1454,0.1458,0.1482,0.1487,0.151,0.1542,0.1543,0.1644,0.1644,0,0,0.1264,0.1248,0.13,0.1314,0.1327,0.1349,0.1358,0.1451,0.1466,0.1482,0.149,0.1512,0.1543,0.1544,0.1643,0.1644,0,0,0,0.124,0.1242,0.128,0.1308,0.134,0.1353,0.1364,0.1463,0.1476,0.1491,0.1513,0.1544,0.1545,0.1643,0.1644,0.1675,0,0,0,0.1235,0.1228,0.1276,0.1268,0.1339,0.1414,0.1373,0.1469,0.1481,0.1512,0.1544,0.1546,0.1642,0.1643,0.1673,0.1683,0,0,0,0.1213,0.1225,0.1247,0.1267,0.1331,0.1414,0.1433,0.1473,0.1493,0.1542,0.1546,0.1642,0.1643,0.1671,0.168,0.1728,0,0,0,0.1184,0.1213,0.1247,0.129,0.133,0.1411,0.1433,0.1503,0.1548,0.1544,0.1642,0.1643,0.167,0.1679,0.1726,0.1524,0,0,0,0.1196,0.1215,0.1239,0.1272,0.1341,0.139,0.1469,0.1538,0.156,0.1605,0.1608,0.1673,0.168,0.1728,0.1588,0,0,0,0,0.1225,0.1247,0.1274,0.1329,0.139,0.1462,0.1531,0.1566,0.164,0.1593,0.1686,0.169,0.1719,0.1595,0.1649,0.1648,0.1648,0.1648,0.1648,0.121,0.1251,0.1296,0.136,0.1421,0.152,0.1581,0.1643,0.166,0.1702,0.1725,0.1794,0.1664,0.1737,0.1737,0.1737,0.1738,0.1738,0.1738,0.1214,0.1233,0.1309,0.1369,0.1453,0.1531,0.1643,0.1683,0.1779,0.1766,0.1794,0.1647,0.1741,0.174,0.174,0.174,0.1739,0.1739,0.1739,0.1179,0.1192,0.125,0.1341,0.144,0.1547,0.1643,0.1739,0.1806,0.1848,0.1737,0.1826,0.1814,0.1876,0.1877,0.1877,0.1877,0.1877,0.1878,0.1107,0.1163,0.1208,0.1314,0.1377,0.1493,0.1658,0.1723,0.1821,0.1755,0.1871,0.1841,0.1837,0.1822,0.1882,0.1881,0.188,0.188,0.188,0.1046,0.1084,0.1136,0.1194,0.1326,0.1392,0.1573,0.1654,0.1713,0.1706,0.1707,0.1715,0.1689,0.1688,0.1668,0.1684,0.1681,0.1679,0,0.0992,0.1017,0.1074,0.1132,0.1199,0.1325,0.1362,0.1467,0.1559,0.1503,0.1713,0.1711,0.1715,0.1682,0.1678,0.1651,0,0,0,0.095,0.0978,0.0992,0.1066,0.1126,0.1226,0.1365,0.1353,0.1542,0.1542,0.1619,0.1635,0.1786,0.1894,0.1873,0.1867,0.1844,0,0]},{"header":{"parameterUnit":"m.s-1","parameterCategory":2,"la1":30.2992,"la2":30.254,"lo1":-89.0895,"lo2":-89.0443,"dy":0.0025,"dx":0.0025,"nx":19,"ny":19,"refTime":"2026-03-13T03:00:00:Z","depth":"4","parameterNumber":3,"parameterNumberName":"V-component_of_CURRENTS"},"data":[0,0,0,-0.001,-0.0011,-0.0048,-0.0048,-0.0114,-0.0114,0,0,0,0,0,0,0,0,0,0,0,0.0003,0.0003,-0.001,-0.0011,-0.0048,-0.0048,-0.0113,-0.0114,0,0,0,0,0,0,0,0,0,0,0,0.0003,0.0003,0.0003,-0.0011,-0.0048,-0.0048,-0.0113,-0.0083,0,0,0,0,0,0,0,0,0,0,-0.0045,-0.0026,0.0003,0.0003,-0.0011,-0.0048,-0.0048,-0.0081,-0.0085,-0.0099,0,-0.01,0,-0.0106,-0.0118,-0.0118,0,0,0,-0.0018,-0.0023,-0.0033,0.0003,-0.0011,-0.0048,-0.0033,-0.0083,-0.0087,-0.0104,-0.0101,-0.0103,-0.0107,-0.0119,-0.0119,-0.0134,-0.0134,0,0,-0.0016,-0.0006,-0.003,-0.0035,-0.0015,-0.0032,-0.0034,-0.0085,-0.0087,-0.0101,-0.0105,-0.0108,-0.0119,-0.0119,-0.0135,-0.0134,0,0,0,-0.0005,-0.0004,-0.0014,-0.0033,-0.0037,-0.0033,-0.0036,-0.0085,-0.0088,-0.0105,-0.0109,-0.0119,-0.012,-0.0135,-0.0134,-0.007,0,0,0,-0.0004,0.0002,-0.0012,-0.0007,-0.0035,-0.0058,-0.0034,-0.0084,-0.009,-0.0109,-0.0119,-0.0121,-0.0135,-0.0135,-0.0072,-0.0027,0,0,0,0.0004,0.0003,0.0001,-0.0006,-0.0019,-0.0057,-0.0064,-0.0085,-0.0092,-0.0118,-0.0121,-0.0135,-0.0135,-0.0074,-0.0032,-0.0016,0,0,0,0.0012,0.0023,0.0001,0.0015,-0.0019,-0.0019,-0.0063,-0.0073,-0.009,-0.012,-0.0135,-0.0134,-0.0075,-0.0035,-0.0018,0.0008,0,0,0,0.0034,0.0026,0.0036,0.0015,0.0033,-0.0014,-0.0,-0.0046,-0.0086,-0.0122,-0.0122,-0.0071,-0.0032,-0.0016,0.0048,0,0,0,0,0.0048,0.0057,0.0058,0.0061,0.0049,0.0047,0.0001,-0.0022,-0.0053,-0.0093,-0.0075,-0.0053,-0.0045,-0.0037,-0.0131,-0.0131,-0.0131,-0.0131,-0.0131,0.0085,0.0085,0.0111,0.0111,0.0111,0.0085,0.0077,0.0037,-0.0012,-0.0015,-0.0004,0.0051,0.0062,-0.0018,-0.0017,-0.0017,-0.0017,-0.0017,-0.0016,0.0131,0.0149,0.0156,0.018,0.0176,0.0182,0.0148,0.0116,0.0098,0.0052,0.0055,0.0027,-0.001,-0.0011,-0.0012,-0.0013,-0.0014,-0.0014,-0.0014,0.0156,0.0169,0.0184,0.0226,0.0256,0.0245,0.0279,0.0234,0.0166,0.0176,0.0158,0.0094,0.0092,0.0167,0.0168,0.0168,0.0168,0.0168,0.0168,0.0175,0.0195,0.0234,0.0276,0.0313,0.0356,0.0354,0.0345,0.028,0.0248,0.0195,0.0113,0.0107,0.0102,0.0173,0.0172,0.0171,0.0171,0.0171,0.0204,0.0214,0.0278,0.0319,0.0411,0.045,0.0453,0.0424,0.0412,0.037,0.0271,0.0265,0.0242,0.0233,0.0231,0.0344,0.0344,0.0345,0,0.0221,0.0231,0.0319,0.0395,0.0481,0.0506,0.0527,0.0507,0.0416,0.0407,0.0388,0.0277,0.0272,0.0246,0.0238,0.0237,0,0,0,0.0243,0.0269,0.0333,0.0411,0.0509,0.0533,0.0536,0.0516,0.0434,0.0426,0.0361,0.0356,0.0275,0.0186,0.0136,0.0129,0.0118,0,0]}]]